Pubblicità

Relazioni, Coppia, Famiglia

le risposte dellesperto relazioni coppia famiglia

Titolo Data pubblicazione Visite
Problemi con marito [1623427969990] 01 Luglio 2021 103
Due nemici sotto lo stesso tetto [1618078137799] 26 Aprile 2021 234
Il mio compagno non viene accettato da mio figlio [1616144397861] 29 Marzo 2021 290
Il mio fidanzato mi umilia [1614021881345] 02 Marzo 2021 400
Due mondi diversi [1609233895801] 24 Febbraio 2021 195
Genitori separati [1612775225644] 09 Febbraio 2021 183
Ragazzo insicuro e con ansia da prestazione [1610402462622] 20 Gennaio 2021 189
Situazione complessa [1610205584139] 16 Gennaio 2021 181
Genitori che non ti accettano [1604841682935] 24 Novembre 2020 223
sono dubbiosa sul futuro di mio figlio [1603284133906] 30 Ottobre 2020 401
Tradimento e incertezze [1603045350960] 21 Ottobre 2020 336
Come imparare ad andare [1599913536491] 21 Settembre 2020 312
crisi di mezza eta' [1596383154858] 09 Settembre 2020 421
Mancata separazione [1598982652567] 02 Settembre 2020 276
Un figlio non voluto dalla mamma [15967491246] 31 Agosto 2020 149
Dubbi esistenziali [1594757516693] 29 Luglio 2020 224
sindrome di rebecca [1594018537814] 14 Luglio 2020 586
Dovrei stare con lui? (15796941885) 07 Febbraio 2020 499
Quando lei maltratta lui (1574831113125) 11 Dicembre 2019 488
Presa in giro (1574783413891) 11 Dicembre 2019 379
Sta con me ma ama ancora la sua ex? (1570428641955) 27 Novembre 2019 316
Problema cellulare (1572545674306) 20 Novembre 2019 286
senza via di uscita 2 (157236170832) 31 Ottobre 2019 443
Senza via di uscita (1571319488503) 21 Ottobre 2019 521
Indecisione e paura di essere felice (1569742705241) 01 Ottobre 2019 490
Non so più cosa voglio (156899247353) 24 Settembre 2019 522
Superare un tradimento (1567413219631) 09 Settembre 2019 465
Mia madre e il mio fidanzato (1567348985209) 05 Settembre 2019 453
Sofferenza per l'amante (1566977771624) 29 Agosto 2019 597
Rottura di un rapporto (1566312157147) 22 Agosto 2019 447
Marito assente (156491757332) 09 Agosto 2019 2125
Carla (1564835062431) 09 Agosto 2019 408
Relazione a distanza (1564826207449) 07 Agosto 2019 398
Tira e Molla (1563459070789) 30 Luglio 2019 440
Bisogno di aiuto (1563283445736) 18 Luglio 2019 427
Perdita improvvisa di un genitore (1560971827129) 21 Giugno 2019 463
Il mio compagno (156087164017) 19 Giugno 2019 472
Coppia e Famiglia (156040281321) 14 Giugno 2019 491
Sto male ( 1559035915307) 29 Maggio 2019 496
Coppia e Famiglia (1558572212226) 29 Maggio 2019 508
Confusione e stress (1553303959980) 27 Marzo 2019 549
Sig.ra (1553099447199) 26 Marzo 2019 613
Relazione di coppia patologica (1549839723728) 19 Febbraio 2019 1268
Complesso di inferiorità (1548926680437) 04 Febbraio 2019 1106
Tradimento e sofferenza (1548683540898) 31 Gennaio 2019 1182
Ansia perenne (1548091967786) 25 Gennaio 2019 573
Non so piu' che fare (1543328403961) 03 Dicembre 2018 639
Senso di colpa di per aver detto troppo (1540374819691) 16 Novembre 2018 578
Compagno con attacchi di rabbia (1541187657371) 12 Novembre 2018 625
Malumore in famiglia (1537254112650) 05 Ottobre 2018 796
Primo amore (1537874025567) 28 Settembre 2018 571
Il mio ragazzo mi ha allontanata (1534805529253) 18 Settembre 2018 1002
Rapporto con la figlia (1535788300280) 17 Settembre 2018 590
Crisi per tradimento (1534711372798) 11 Settembre 2018 703
Il mio ragazzo ha un'amica sua ex (153424269298) 10 Settembre 2018 625
Rapporto con mia madre (1535104881951) 06 Settembre 2018 611
Un NON rapporto con mio fratello (153469284498) 29 Agosto 2018 3081
Amore Bordeline? (1533557790479) 10 Agosto 2018 815
Ragazzo fuori controllo (1533508901303) 09 Agosto 2018 707
Difficoltà familiari (1532957995162) 03 Agosto 2018 710
Paternalismo nella coppia (153131547452) 26 Luglio 2018 1775
Marito che pensa solo alla sua famiglia (1531074224846) 17 Luglio 2018 1491
L'amore e la comunicazione (153081929712) 16 Luglio 2018 805
Infedeltà (1528369634858) 20 Giugno 2018 607
Una relazione finita... in clinica psichiatrica (1527834452910) 18 Giugno 2018 771
Signorina (1527419268970) 13 Giugno 2018 509
consulenza (1526474836350) 07 Giugno 2018 567
Carattere carissimo amico (1526471229152) 04 Giugno 2018 651
Superare il tradimento del marito (1527264851796) 31 Maggio 2018 734
Fine di un amore senza motivo (1526249055584) 22 Maggio 2018 875
Sorella cattiva (1525386993641) 17 Maggio 2018 2103
Crisi di nervi (1525262146654) 16 Maggio 2018 880
Litigi: dalle pulizie ad un bimbo (1524496959496) 10 Maggio 2018 622
La mia ragazza mi tratta sempre peggio (1525036636879) 09 Maggio 2018 640
Scatti d’ira del partner (1524331648729) 03 Maggio 2018 22045
Padre egoista (152386744999) 02 Maggio 2018 3167
Come posso far sì che ritorni? (1523626932948) 23 Aprile 2018 738
Marito confuso (1521708111477) 20 Aprile 2018 1032
Che fare? (1520934157214) 19 Aprile 2018 651
Amore non corrisposto (1521653985892) 17 Aprile 2018 1000
Ex mai dimenticato (1520597791398) 11 Aprile 2018 1569
Odio mio marito (1522265546342) 04 Aprile 2018 5903
Comportamento evitante? (1522244675308) 03 Aprile 2018 709
Famiglia d'origine interferisce con famiglia scelta (1518999055256) 16 Marzo 2018 829
Il comportamento più giusto (1517572917528) 12 Marzo 2018 643
Comunicazione a seguito di scoperta dell'identità di 2 fratelli adottati presso 2 famiglie diverse. (1518280912103) 08 Marzo 2018 591
io lui lei (1517583418670) 07 Marzo 2018 748
problemi con i suoceri (1517899846528) 27 Febbraio 2018 833
Ansia da pause di riflessione (1517225957396) 25 Febbraio 2018 3632
Effetti della separazione consensuale (1516562874427) 08 Febbraio 2018 806
problemi con la famiglia di mio marito (1515419703464) 06 Febbraio 2018 767
matrimonio, figli, amante (1513721077853) 12 Gennaio 2018 977
Violenza fra parenti (1513435396434) 04 Gennaio 2018 710
La danza, da passione a ladra di tempo... (151118367456) 24 Novembre 2017 901
problema convivenza (1509968405415) 09 Novembre 2017 845
Non capisco perché (1506543024129) 06 Novembre 2017 860
Consiglio (1507015426144) 16 Ottobre 2017 761
Problemi di coppia (1506954898731) 10 Ottobre 2017 1025
Paura di perdere mia madre (1506531733525) 05 Ottobre 2017 5113
Fallimento mio e del mio matrimonio (1506418376611) 03 Ottobre 2017 1094

Guarda anche...

Pubblicità

Pubblicità

I Sondaggi di Psiconline

Come reagisci alle notizie riguardanti l’immigrazione?

Pubblicità

Le Risposte dell'Esperto

Problemi con marito [162342796…

Viola, 38 anni     Buongiorno, avrei bisogno di un consulto per dei problemi con mio marito.Mio marito è molto irascibile ma oltre a urlare no...

Ansia e paura nella guida [162…

Clarissa, 22 anni       Salve, vi scrivo perchè da un paio di mesi sto facendo le guide in autoscuola ma la sto vivendo un po' male...

Sensazione di essere preso in …

  Michele, 75 anni     Gent.mo Dott., sono un musicista (ed ex bancario). Da un po' di tempo mi reco presso un negozio saltuariamente do...

Area Professionale

La trasmissione intergenerazio…

Modificazioni epigenetiche nei figli di sopravvissuti all’Olocausto I figli di persone traumatizzate hanno un rischio maggiore di sviluppare il disturbo post-t...

Il Protocollo CNOP-MIUR e gli …

di Catello Parmentola CNOP e MIUR hanno firmato nel 2020 un Protocollo d'intesa per il supporto psicologico nelle istituzioni scolastiche. Evento molto positiv...

Come gestire il transfert nega…

Per non soccombere alle proiezioni negative del transfert, lo psicoterapeuta deve conoscere con convinzione ciò che appartiene alla psiche del paziente e ciò ch...

Le parole della Psicologia

Lapsus

Il lapsus (in latino "caduta/scivolone") è un errore involontario consistente nel sostituire un suono o scrivere una lettera invece di un’altra, nella fusione d...

Schizofasia

Profonda disgregazione del linguaggio che è sostituito da un’accozzaglia di parole o insalata di parole prive di un qualsiasi significato. Questo disturbo ling...

Carattere

Dal greco karasso, che significa letteralente "incidere", è l'insieme delle doti individuali e delle disposizioni psichiche di un individuo. Può anche essere...

News Letters